Location: Newark
(5.5500°N, 0.2500°W)
Time: 22:35:12
(UTC+00:00)

Hubble Space Telescope - Pass Details

Date: 25 September 2019
Orbit: 536 x 540 km, 28.5° (Epoch: 16 October)

Event Time Altitude Azimuth Distance (km) Brightness Sun altitude
Exits shadow 03:47:35 12° 35° (NE) 1,621 3.6 -31.2°
Drops below altitude 10° 03:48:44 10° 51° (NE) 1,771 4.0 -31.0°
Sets 03:52:06 0° 80° (E) 2,663 5.5 -30.1°
